Tracking 23752 objects as of 23-Oct-2021
HD Live streaming from Space Station
objects crossing your sky now

DELTA 1 DEB

Track DELTA 1 DEB now!
10-day predictions


NORAD ID: 10306
Int'l Code: 1977-065DC
Perigee: 535.4 km
Apogee: 1,577.6 km
Inclination: 29.1 °
Period: 106.2 minutes
Semi major axis: 7427 km
RCS: 0.0051 m2 (small)
Launch date: July 14, 1977
Source: United States (US)
Launch site: AIR FORCE EASTERN TEST RANGE (AFETR)

Note: This is SATELLITE DEBRIS
aabbcc
Your satellite tracking list
Your tracking list is empty




NASA's NSSDC Master Catalog

Two Line Element Set (TLE):
1 10306U 77065DC  21296.34734219  .00001279  00000-0  31411-3 0  9990
2 10306  29.1100 317.9947 0701572 307.7289  46.1669 13.56255637159553
Source of the keplerian elements: AFSPC